Year,Month,Day,Hour,Minute,Value (Times are PST for temperature in C)
2016,07,11,00,00,16.90
2016,07,11,00,01,17.00
2016,07,11,00,02,17.00
2016,07,11,00,03,17.00
2016,07,11,00,04,17.10
2016,07,11,00,05,17.10
2016,07,11,00,06,17.10
2016,07,11,00,07,17.10
2016,07,11,00,08,17.10
2016,07,11,00,09,17.10
2016,07,11,00,10,17.10
2016,07,11,00,11,17.10
2016,07,11,00,12,17.10
2016,07,11,00,13,17.00
2016,07,11,00,14,17.00
2016,07,11,00,15,17.00
2016,07,11,00,16,17.00
2016,07,11,00,17,16.90
2016,07,11,00,18,16.90
2016,07,11,00,19,16.90
2016,07,11,00,20,16.90
2016,07,11,00,21,16.90
2016,07,11,00,22,16.90
2016,07,11,00,23,16.90
2016,07,11,00,24,16.90
2016,07,11,00,25,16.90
2016,07,11,00,26,16.80
2016,07,11,00,27,16.80
2016,07,11,00,28,16.80
2016,07,11,00,29,16.80
2016,07,11,00,30,16.80
2016,07,11,00,31,16.80
2016,07,11,00,32,16.80
2016,07,11,00,33,16.80
2016,07,11,00,34,16.80
2016,07,11,00,35,16.80
2016,07,11,00,36,16.80
2016,07,11,00,37,16.70
2016,07,11,00,38,16.70
2016,07,11,00,39,16.70
2016,07,11,00,40,16.60
2016,07,11,00,41,16.60
2016,07,11,00,42,16.60
2016,07,11,00,43,16.60
2016,07,11,00,44,16.50
2016,07,11,00,45,16.50
2016,07,11,00,46,16.50
2016,07,11,00,47,16.50
2016,07,11,00,48,16.40
2016,07,11,00,49,16.40
2016,07,11,00,50,16.40
2016,07,11,00,51,16.40
2016,07,11,00,52,16.40
2016,07,11,00,53,16.40
2016,07,11,00,54,16.30
2016,07,11,00,55,16.30
2016,07,11,00,56,16.30
2016,07,11,00,57,16.30
2016,07,11,00,58,16.30
2016,07,11,00,59,16.30
2016,07,11,01,00,16.30
2016,07,11,01,01,16.30
2016,07,11,01,02,16.30
2016,07,11,01,03,16.30
2016,07,11,01,04,16.30
2016,07,11,01,05,16.20
2016,07,11,01,06,16.20
2016,07,11,01,07,16.20
2016,07,11,01,08,16.20
2016,07,11,01,09,16.20
2016,07,11,01,10,16.20
2016,07,11,01,11,16.10
2016,07,11,01,12,16.10
2016,07,11,01,13,16.10
2016,07,11,01,14,16.10
2016,07,11,01,15,16.10
2016,07,11,01,16,16.10
2016,07,11,01,17,16.10
2016,07,11,01,18,16.10
2016,07,11,01,19,16.10
2016,07,11,01,20,16.10
2016,07,11,01,21,16.10
2016,07,11,01,22,16.10
2016,07,11,01,23,16.10
2016,07,11,01,24,16.10
2016,07,11,01,25,16.00
2016,07,11,01,26,16.10
2016,07,11,01,27,16.10
2016,07,11,01,28,16.10
2016,07,11,01,29,16.10
2016,07,11,01,30,16.10
2016,07,11,01,31,16.10
2016,07,11,01,32,16.10
2016,07,11,01,33,16.10
2016,07,11,01,34,16.10
2016,07,11,01,35,16.10
2016,07,11,01,36,16.20
2016,07,11,01,37,16.20
2016,07,11,01,38,16.20
2016,07,11,01,39,16.30
2016,07,11,01,40,16.30
2016,07,11,01,41,16.30
2016,07,11,01,42,16.30
2016,07,11,01,43,16.30
2016,07,11,01,44,16.30
2016,07,11,01,45,16.30
2016,07,11,01,46,16.30
2016,07,11,01,47,16.20
2016,07,11,01,48,16.20
2016,07,11,01,49,16.20
2016,07,11,01,50,16.20
2016,07,11,01,51,16.20
2016,07,11,01,52,16.10
2016,07,11,01,53,16.10
2016,07,11,01,54,16.10
2016,07,11,01,55,16.10
2016,07,11,01,56,16.00
2016,07,11,01,57,16.00
2016,07,11,01,58,16.00
2016,07,11,01,59,15.90
2016,07,11,02,00,15.90
2016,07,11,02,01,15.90
2016,07,11,02,02,15.90
2016,07,11,02,03,15.80
2016,07,11,02,04,15.80
2016,07,11,02,05,15.80
2016,07,11,02,06,15.80
2016,07,11,02,07,15.80
2016,07,11,02,08,15.70
2016,07,11,02,09,15.70
2016,07,11,02,10,15.70
2016,07,11,02,11,15.70
2016,07,11,02,12,15.70
2016,07,11,02,13,15.70
2016,07,11,02,14,15.60
2016,07,11,02,15,15.60
2016,07,11,02,16,15.60
2016,07,11,02,17,15.60
2016,07,11,02,18,15.60
2016,07,11,02,19,15.60
2016,07,11,02,20,15.60
2016,07,11,02,21,15.60
2016,07,11,02,22,15.60
2016,07,11,02,23,15.60
2016,07,11,02,24,15.60
2016,07,11,02,25,15.60
2016,07,11,02,26,15.50
2016,07,11,02,27,15.50
2016,07,11,02,28,15.40
2016,07,11,02,29,15.40
2016,07,11,02,30,15.40
2016,07,11,02,31,15.40
2016,07,11,02,32,15.30
2016,07,11,02,33,15.30
2016,07,11,02,34,15.30
2016,07,11,02,35,15.30
2016,07,11,02,36,15.20
2016,07,11,02,37,15.20
2016,07,11,02,38,15.20
2016,07,11,02,39,15.10
2016,07,11,02,40,15.10
2016,07,11,02,41,15.00
2016,07,11,02,42,15.00
2016,07,11,02,43,15.00
2016,07,11,02,44,15.00
2016,07,11,02,45,15.00
2016,07,11,02,46,15.00
2016,07,11,02,47,15.00
2016,07,11,02,48,15.00
2016,07,11,02,49,15.00
2016,07,11,02,50,15.00
2016,07,11,02,51,15.00
2016,07,11,02,52,15.00
2016,07,11,02,53,15.00
2016,07,11,02,54,15.00
2016,07,11,02,55,15.00
2016,07,11,02,56,15.00
2016,07,11,02,57,15.00
2016,07,11,02,58,15.00
2016,07,11,02,59,15.00
2016,07,11,03,00,15.00
2016,07,11,03,01,15.00
2016,07,11,03,02,15.00
2016,07,11,03,03,15.00
2016,07,11,03,04,15.00
2016,07,11,03,05,14.90
2016,07,11,03,06,14.90
2016,07,11,03,07,14.90
2016,07,11,03,08,14.80
2016,07,11,03,09,14.80
2016,07,11,03,10,14.80
2016,07,11,03,11,14.70
2016,07,11,03,12,14.70
2016,07,11,03,13,14.70
2016,07,11,03,14,14.60
2016,07,11,03,15,14.60
2016,07,11,03,16,14.60
2016,07,11,03,17,14.60
2016,07,11,03,18,14.70
2016,07,11,03,19,14.70
2016,07,11,03,20,14.70
2016,07,11,03,21,14.70
2016,07,11,03,22,14.70
2016,07,11,03,23,14.70
2016,07,11,03,24,14.70
2016,07,11,03,25,14.70
2016,07,11,03,26,14.70
2016,07,11,03,27,14.70
2016,07,11,03,28,14.70
2016,07,11,03,29,14.70
2016,07,11,03,30,14.60
2016,07,11,03,31,14.50
2016,07,11,03,32,14.40
2016,07,11,03,33,14.30
2016,07,11,03,34,14.30
2016,07,11,03,35,14.30
2016,07,11,03,36,14.20
2016,07,11,03,37,14.20
2016,07,11,03,38,14.20
2016,07,11,03,39,14.20
2016,07,11,03,40,14.30
2016,07,11,03,41,14.30
2016,07,11,03,42,14.20
2016,07,11,03,43,14.20
2016,07,11,03,44,14.10
2016,07,11,03,45,14.00
2016,07,11,03,46,14.00
2016,07,11,03,47,13.90
2016,07,11,03,48,13.80
2016,07,11,03,49,13.80
2016,07,11,03,50,13.70
2016,07,11,03,51,13.70
2016,07,11,03,52,13.70
2016,07,11,03,53,13.70
2016,07,11,03,54,13.60
2016,07,11,03,55,13.60
2016,07,11,03,56,13.60
2016,07,11,03,57,13.50
2016,07,11,03,58,13.50
2016,07,11,03,59,13.40
2016,07,11,04,00,13.40
2016,07,11,04,01,13.40
2016,07,11,04,02,13.30
2016,07,11,04,03,13.30
2016,07,11,04,04,13.30
2016,07,11,04,05,13.20
2016,07,11,04,06,13.20
2016,07,11,04,07,13.20
2016,07,11,04,08,13.10
2016,07,11,04,09,13.10
2016,07,11,04,10,13.10
2016,07,11,04,11,13.10
2016,07,11,04,12,13.10
2016,07,11,04,13,13.10
2016,07,11,04,14,13.10
2016,07,11,04,15,13.10
2016,07,11,04,16,13.10
2016,07,11,04,17,13.10
2016,07,11,04,18,13.10
2016,07,11,04,19,13.10
2016,07,11,04,20,13.10
2016,07,11,04,21,13.10
2016,07,11,04,22,13.10
2016,07,11,04,23,13.10
2016,07,11,04,24,13.20
2016,07,11,04,25,13.20
2016,07,11,04,26,13.20
2016,07,11,04,27,13.20
2016,07,11,04,28,13.20
2016,07,11,04,29,13.20
2016,07,11,04,30,13.20
2016,07,11,04,31,13.20
2016,07,11,04,32,13.30
2016,07,11,04,33,13.30
2016,07,11,04,34,13.30
2016,07,11,04,35,13.30
2016,07,11,04,36,13.40
2016,07,11,04,37,13.40
2016,07,11,04,38,13.40
2016,07,11,04,39,13.40
2016,07,11,04,40,13.50
2016,07,11,04,41,13.50
2016,07,11,04,42,13.60
2016,07,11,04,43,13.60
2016,07,11,04,44,13.70
2016,07,11,04,45,13.70
2016,07,11,04,46,13.70
2016,07,11,04,47,13.70
2016,07,11,04,48,13.80
2016,07,11,04,49,13.80
2016,07,11,04,50,13.80
2016,07,11,04,51,13.80
2016,07,11,04,52,13.80
2016,07,11,04,53,13.80
2016,07,11,04,54,13.80
2016,07,11,04,55,13.80
2016,07,11,04,56,13.80
2016,07,11,04,57,13.80
2016,07,11,04,58,13.80
2016,07,11,04,59,13.80
2016,07,11,05,00,13.80
2016,07,11,05,01,13.80
2016,07,11,05,02,13.80
2016,07,11,05,03,13.90
2016,07,11,05,04,13.90
2016,07,11,05,05,13.90
2016,07,11,05,06,13.90
2016,07,11,05,07,13.90
2016,07,11,05,08,13.90
2016,07,11,05,09,13.90
2016,07,11,05,10,13.90
2016,07,11,05,11,13.90
2016,07,11,05,12,13.90
2016,07,11,05,13,13.90
2016,07,11,05,14,13.90
2016,07,11,05,15,13.90
2016,07,11,05,16,13.90
2016,07,11,05,17,13.90
2016,07,11,05,18,13.80
2016,07,11,05,19,13.80
2016,07,11,05,20,13.80
2016,07,11,05,21,13.80
2016,07,11,05,22,13.80
2016,07,11,05,23,13.80
2016,07,11,05,24,13.80
2016,07,11,05,25,13.80
2016,07,11,05,26,13.80
2016,07,11,05,27,13.90
2016,07,11,05,28,13.90
2016,07,11,05,29,13.90
2016,07,11,05,30,14.00
2016,07,11,05,31,14.00
2016,07,11,05,32,14.10
2016,07,11,05,33,14.10
2016,07,11,05,34,14.10
2016,07,11,05,35,14.10
2016,07,11,05,36,14.10
2016,07,11,05,37,14.10
2016,07,11,05,38,14.10
2016,07,11,05,39,14.10
2016,07,11,05,40,14.10
2016,07,11,05,41,14.10
2016,07,11,05,42,14.10
2016,07,11,05,43,14.10
2016,07,11,05,44,14.10
2016,07,11,05,45,14.10
2016,07,11,05,46,14.10
2016,07,11,05,47,14.10
2016,07,11,05,48,14.20
2016,07,11,05,49,14.20
2016,07,11,05,50,14.20
2016,07,11,05,51,14.20
2016,07,11,05,52,14.20
2016,07,11,05,53,14.20
2016,07,11,05,54,14.20
2016,07,11,05,55,14.20
2016,07,11,05,56,14.20
2016,07,11,05,57,14.20
2016,07,11,05,58,14.20
2016,07,11,05,59,14.20
2016,07,11,06,00,14.20
2016,07,11,06,01,14.20
2016,07,11,06,02,14.20
2016,07,11,06,03,14.20
2016,07,11,06,04,14.30
2016,07,11,06,05,14.30
2016,07,11,06,06,14.30
2016,07,11,06,07,14.30
2016,07,11,06,08,14.30
2016,07,11,06,09,14.30
2016,07,11,06,10,14.30
2016,07,11,06,11,14.30
2016,07,11,06,12,14.30
2016,07,11,06,13,14.30
2016,07,11,06,14,14.30
2016,07,11,06,15,14.30
2016,07,11,06,16,14.30
2016,07,11,06,17,14.30
2016,07,11,06,18,14.30
2016,07,11,06,19,14.30
2016,07,11,06,20,14.30
2016,07,11,06,21,14.30
2016,07,11,06,22,14.30
2016,07,11,06,23,14.30
2016,07,11,06,24,14.30
2016,07,11,06,25,14.30
2016,07,11,06,26,14.30
2016,07,11,06,27,14.30
2016,07,11,06,28,14.40
2016,07,11,06,29,14.40
2016,07,11,06,30,14.50
2016,07,11,06,31,14.50
2016,07,11,06,32,14.50
2016,07,11,06,33,14.50
2016,07,11,06,34,14.60
2016,07,11,06,35,14.60
2016,07,11,06,36,14.60
2016,07,11,06,37,14.60
2016,07,11,06,38,14.70
2016,07,11,06,39,14.70
2016,07,11,06,40,14.80
2016,07,11,06,41,14.80
2016,07,11,06,42,14.90
2016,07,11,06,43,15.00
2016,07,11,06,44,15.00
2016,07,11,06,45,15.00
2016,07,11,06,46,15.00
2016,07,11,06,47,15.00
2016,07,11,06,48,15.00
2016,07,11,06,49,15.10
2016,07,11,06,50,15.20
2016,07,11,06,51,15.20
2016,07,11,06,52,15.20
2016,07,11,06,53,15.30
2016,07,11,06,54,15.30
2016,07,11,06,55,15.30
2016,07,11,06,56,15.30
2016,07,11,06,57,15.20
2016,07,11,06,58,15.20
2016,07,11,06,59,15.20
2016,07,11,07,00,15.20
2016,07,11,07,01,15.20
2016,07,11,07,02,15.20
2016,07,11,07,03,15.20
2016,07,11,07,04,15.20
2016,07,11,07,05,15.20
2016,07,11,07,06,15.20
2016,07,11,07,07,15.20
2016,07,11,07,08,15.20
2016,07,11,07,09,15.20
2016,07,11,07,10,15.20
2016,07,11,07,11,15.20
2016,07,11,07,12,15.20
2016,07,11,07,13,15.20
2016,07,11,07,14,15.20
2016,07,11,07,15,15.20
2016,07,11,07,16,15.10
2016,07,11,07,17,15.10
2016,07,11,07,18,15.10
2016,07,11,07,19,15.10
2016,07,11,07,20,15.10
2016,07,11,07,21,15.00
2016,07,11,07,22,15.00
2016,07,11,07,23,15.00
2016,07,11,07,24,15.00
2016,07,11,07,25,15.00
2016,07,11,07,26,15.00
2016,07,11,07,27,15.00
2016,07,11,07,28,15.00
2016,07,11,07,29,15.00
2016,07,11,07,30,15.00
2016,07,11,07,31,15.00
2016,07,11,07,32,15.00
2016,07,11,07,33,15.00
2016,07,11,07,34,15.00
2016,07,11,07,35,15.00
2016,07,11,07,36,15.00
2016,07,11,07,37,15.00
2016,07,11,07,38,15.00
2016,07,11,07,39,15.00
2016,07,11,07,40,15.00
2016,07,11,07,41,15.10
2016,07,11,07,42,15.10
2016,07,11,07,43,15.10
2016,07,11,07,44,15.20
2016,07,11,07,45,15.20
2016,07,11,07,46,15.30
2016,07,11,07,47,15.40
2016,07,11,07,48,15.40
2016,07,11,07,49,15.50
2016,07,11,07,50,15.60
2016,07,11,07,51,15.70
2016,07,11,07,52,15.80
2016,07,11,07,53,15.90
2016,07,11,07,54,15.90
2016,07,11,07,55,16.00
2016,07,11,07,56,16.00
2016,07,11,07,57,16.10
2016,07,11,07,58,16.00
2016,07,11,07,59,16.00
2016,07,11,08,00,16.00
2016,07,11,08,01,16.00
2016,07,11,08,02,16.00
2016,07,11,08,03,15.90
2016,07,11,08,04,15.90
2016,07,11,08,05,15.90
2016,07,11,08,06,15.90
2016,07,11,08,07,15.90
2016,07,11,08,08,16.00
2016,07,11,08,09,15.90
2016,07,11,08,10,15.90
2016,07,11,08,11,15.90
2016,07,11,08,12,15.90
2016,07,11,08,13,15.80
2016,07,11,08,14,15.80
2016,07,11,08,15,15.80
2016,07,11,08,16,15.80
2016,07,11,08,17,15.80
2016,07,11,08,18,15.90
2016,07,11,08,19,15.90
2016,07,11,08,20,15.80
2016,07,11,08,21,15.90
2016,07,11,08,22,15.80
2016,07,11,08,23,15.80
2016,07,11,08,24,15.80
2016,07,11,08,25,15.80
2016,07,11,08,26,15.80
2016,07,11,08,27,15.80
2016,07,11,08,28,15.80
2016,07,11,08,29,15.80
2016,07,11,08,30,15.80
2016,07,11,08,31,15.80
2016,07,11,08,32,15.80
2016,07,11,08,33,15.80
2016,07,11,08,34,15.80
2016,07,11,08,35,15.80
2016,07,11,08,36,15.80
2016,07,11,08,37,15.70
2016,07,11,08,38,15.70
2016,07,11,08,39,15.70
2016,07,11,08,40,15.70
2016,07,11,08,41,15.60
2016,07,11,08,42,15.60
2016,07,11,08,43,15.50
2016,07,11,08,44,15.40
2016,07,11,08,45,15.40
2016,07,11,08,46,15.40
2016,07,11,08,47,15.40
2016,07,11,08,48,15.40
2016,07,11,08,49,15.40
2016,07,11,08,50,15.40
2016,07,11,08,51,15.40
2016,07,11,08,52,15.50
2016,07,11,08,53,15.50
2016,07,11,08,54,15.60
2016,07,11,08,55,15.60
2016,07,11,08,56,15.70
2016,07,11,08,57,15.70
2016,07,11,08,58,15.70
2016,07,11,08,59,15.80
2016,07,11,09,00,15.80
2016,07,11,09,01,15.80
2016,07,11,09,02,15.90
2016,07,11,09,03,15.90
2016,07,11,09,04,15.90
2016,07,11,09,05,15.90
2016,07,11,09,06,15.90
2016,07,11,09,07,15.90
2016,07,11,09,08,15.90
2016,07,11,09,09,15.90
2016,07,11,09,10,15.90
2016,07,11,09,11,15.90
2016,07,11,09,12,16.00
2016,07,11,09,13,16.00
2016,07,11,09,14,16.10
2016,07,11,09,15,16.20
2016,07,11,09,16,16.30
2016,07,11,09,17,16.40
2016,07,11,09,18,16.50
2016,07,11,09,19,16.70
2016,07,11,09,20,16.80
2016,07,11,09,21,16.80
2016,07,11,09,22,16.90
2016,07,11,09,23,17.00
2016,07,11,09,24,17.10
2016,07,11,09,25,17.20
2016,07,11,09,26,17.20
2016,07,11,09,27,17.30
2016,07,11,09,28,17.40
2016,07,11,09,29,17.40
2016,07,11,09,30,17.40
2016,07,11,09,31,17.40
2016,07,11,09,32,17.40
2016,07,11,09,33,17.40
2016,07,11,09,34,17.30
2016,07,11,09,35,17.30
2016,07,11,09,36,17.30
2016,07,11,09,37,17.10
2016,07,11,09,38,16.90
2016,07,11,09,39,16.80
2016,07,11,09,40,16.70
2016,07,11,09,41,16.70
2016,07,11,09,42,16.70
2016,07,11,09,43,16.70
2016,07,11,09,44,16.70
2016,07,11,09,45,16.70
2016,07,11,09,46,16.80
2016,07,11,09,47,16.80
2016,07,11,09,48,16.90
2016,07,11,09,49,17.00
2016,07,11,09,50,17.10
2016,07,11,09,51,17.20
2016,07,11,09,52,17.30
2016,07,11,09,53,17.30
2016,07,11,09,54,17.30
2016,07,11,09,55,17.30
2016,07,11,09,56,17.20
2016,07,11,09,57,17.20
2016,07,11,09,58,17.20
2016,07,11,09,59,17.20
2016,07,11,10,00,17.10
2016,07,11,10,01,17.20
2016,07,11,10,02,17.20
2016,07,11,10,03,17.10
2016,07,11,10,04,17.00
2016,07,11,10,05,16.90
2016,07,11,10,06,16.80
2016,07,11,10,07,16.70
2016,07,11,10,08,16.70
2016,07,11,10,09,16.70
2016,07,11,10,10,16.70
2016,07,11,10,11,16.70
2016,07,11,10,12,16.70
2016,07,11,10,13,16.80
2016,07,11,10,14,16.80
2016,07,11,10,15,16.80
2016,07,11,10,16,16.80
2016,07,11,10,17,16.90
2016,07,11,10,18,16.90
2016,07,11,10,19,16.90
2016,07,11,10,20,16.90
2016,07,11,10,21,16.90
2016,07,11,10,22,16.90
2016,07,11,10,23,16.90
2016,07,11,10,24,16.90
2016,07,11,10,25,17.00
2016,07,11,10,26,17.10
2016,07,11,10,27,17.10
2016,07,11,10,28,17.20
2016,07,11,10,29,17.20
2016,07,11,10,30,17.20
2016,07,11,10,31,17.10
2016,07,11,10,32,17.00
2016,07,11,10,33,17.00
2016,07,11,10,34,17.00
2016,07,11,10,35,17.10
2016,07,11,10,36,17.20
2016,07,11,10,37,17.20
2016,07,11,10,38,17.20
2016,07,11,10,39,17.20
2016,07,11,10,40,17.10
2016,07,11,10,41,17.10
2016,07,11,10,42,17.10
2016,07,11,10,43,17.10
2016,07,11,10,44,17.10
2016,07,11,10,45,17.10
2016,07,11,10,46,17.00
2016,07,11,10,47,17.00
2016,07,11,10,48,16.90
2016,07,11,10,49,16.80
2016,07,11,10,50,16.80
2016,07,11,10,51,16.80
2016,07,11,10,52,16.90
2016,07,11,10,53,16.90
2016,07,11,10,54,16.90
2016,07,11,10,55,16.80
2016,07,11,10,56,16.80
2016,07,11,10,57,16.80
2016,07,11,10,58,16.80
2016,07,11,10,59,16.80
2016,07,11,11,00,16.80
2016,07,11,11,01,16.90
2016,07,11,11,02,17.00
2016,07,11,11,03,17.00
2016,07,11,11,04,17.10
2016,07,11,11,05,17.20
2016,07,11,11,06,17.20
2016,07,11,11,07,17.10
2016,07,11,11,08,17.10
2016,07,11,11,09,17.10
2016,07,11,11,10,17.10
2016,07,11,11,11,17.20
2016,07,11,11,12,17.20
2016,07,11,11,13,17.30
2016,07,11,11,14,17.40
2016,07,11,11,15,17.50
2016,07,11,11,16,17.60
2016,07,11,11,17,17.60
2016,07,11,11,18,17.70
2016,07,11,11,19,17.80
2016,07,11,11,20,17.80
2016,07,11,11,21,17.80
2016,07,11,11,22,17.80
2016,07,11,11,23,17.80
2016,07,11,11,24,17.80
2016,07,11,11,25,17.70
2016,07,11,11,26,17.60
2016,07,11,11,27,17.40
2016,07,11,11,28,17.40
2016,07,11,11,29,17.40
2016,07,11,11,30,17.30
2016,07,11,11,31,17.30
2016,07,11,11,32,17.30
2016,07,11,11,33,17.40
2016,07,11,11,34,17.50
2016,07,11,11,35,17.50
2016,07,11,11,36,17.50
2016,07,11,11,37,17.60
2016,07,11,11,38,17.60
2016,07,11,11,39,17.70
2016,07,11,11,40,17.80
2016,07,11,11,41,17.90
2016,07,11,11,42,17.90
2016,07,11,11,43,17.90
2016,07,11,11,44,17.80
2016,07,11,11,45,17.80
2016,07,11,11,46,17.80
2016,07,11,11,47,17.90
2016,07,11,11,48,17.90
2016,07,11,11,49,17.90
2016,07,11,11,50,17.90
2016,07,11,11,51,17.90
2016,07,11,11,52,18.00
2016,07,11,11,53,18.10
2016,07,11,11,54,18.10
2016,07,11,11,55,18.10
2016,07,11,11,56,18.10
2016,07,11,11,57,18.10
2016,07,11,11,58,18.00
2016,07,11,11,59,17.90
2016,07,11,12,00,17.70
2016,07,11,12,01,17.70
2016,07,11,12,02,17.60
2016,07,11,12,03,17.50
2016,07,11,12,04,17.30
2016,07,11,12,05,17.20
2016,07,11,12,06,17.10
2016,07,11,12,07,17.10
2016,07,11,12,08,17.00
2016,07,11,12,09,16.90
2016,07,11,12,10,16.80
2016,07,11,12,11,16.80
2016,07,11,12,12,16.80
2016,07,11,12,13,16.90
2016,07,11,12,14,16.90
2016,07,11,12,15,17.00
2016,07,11,12,16,17.00
2016,07,11,12,17,17.00
2016,07,11,12,18,17.10
2016,07,11,12,19,17.00
2016,07,11,12,20,17.00
2016,07,11,12,21,16.90
2016,07,11,12,22,17.00
2016,07,11,12,23,17.00
2016,07,11,12,24,17.10
2016,07,11,12,25,17.20
2016,07,11,12,26,17.20
2016,07,11,12,27,17.30
2016,07,11,12,28,17.40
2016,07,11,12,29,17.40
2016,07,11,12,30,17.50
2016,07,11,12,31,17.50
2016,07,11,12,32,17.50
2016,07,11,12,33,17.50
2016,07,11,12,34,17.50
2016,07,11,12,35,17.50
2016,07,11,12,36,17.40
2016,07,11,12,37,17.40
2016,07,11,12,38,17.40
2016,07,11,12,39,17.40
2016,07,11,12,40,17.40
2016,07,11,12,41,17.30
2016,07,11,12,42,17.40
2016,07,11,12,43,17.50
2016,07,11,12,44,17.50
2016,07,11,12,45,17.50
2016,07,11,12,46,17.50
2016,07,11,12,47,17.40
2016,07,11,12,48,17.40
2016,07,11,12,49,17.50
2016,07,11,12,50,17.40
2016,07,11,12,51,17.40
2016,07,11,12,52,17.40
2016,07,11,12,53,17.40
2016,07,11,12,54,17.40
2016,07,11,12,55,17.40
2016,07,11,12,56,17.50
2016,07,11,12,57,17.60
2016,07,11,12,58,17.60
2016,07,11,12,59,17.60
2016,07,11,13,00,17.60
2016,07,11,13,01,17.60
2016,07,11,13,02,17.70
2016,07,11,13,03,17.80
2016,07,11,13,04,17.70
2016,07,11,13,05,17.70
2016,07,11,13,06,17.70
2016,07,11,13,07,17.70
2016,07,11,13,08,17.70
2016,07,11,13,09,17.60
2016,07,11,13,10,17.50
2016,07,11,13,11,17.50
2016,07,11,13,12,17.50
2016,07,11,13,13,17.40
2016,07,11,13,14,17.40
2016,07,11,13,15,17.50
2016,07,11,13,16,17.40
2016,07,11,13,17,17.30
2016,07,11,13,18,17.30
2016,07,11,13,19,17.30
2016,07,11,13,20,17.20
2016,07,11,13,21,17.10
2016,07,11,13,22,17.10
2016,07,11,13,23,17.00
2016,07,11,13,24,16.90
2016,07,11,13,25,16.90
2016,07,11,13,26,16.80
2016,07,11,13,27,16.80
2016,07,11,13,28,16.80
2016,07,11,13,29,16.80
2016,07,11,13,30,16.80
2016,07,11,13,31,16.80
2016,07,11,13,32,16.90
2016,07,11,13,33,17.00
2016,07,11,13,34,17.00
2016,07,11,13,35,17.10
2016,07,11,13,36,17.10
2016,07,11,13,37,17.10
2016,07,11,13,38,17.20
2016,07,11,13,39,17.20
2016,07,11,13,40,17.30
2016,07,11,13,41,17.40
2016,07,11,13,42,17.40
2016,07,11,13,43,17.30
2016,07,11,13,44,17.30
2016,07,11,13,45,17.20
2016,07,11,13,46,17.20
2016,07,11,13,47,17.20
2016,07,11,13,48,17.20
2016,07,11,13,49,17.20
2016,07,11,13,50,17.30
2016,07,11,13,51,17.40
2016,07,11,13,52,17.40
2016,07,11,13,53,17.50
2016,07,11,13,54,17.50
2016,07,11,13,55,17.50
2016,07,11,13,56,17.50
2016,07,11,13,57,17.50
2016,07,11,13,58,17.40
2016,07,11,13,59,17.40
2016,07,11,14,00,17.50
2016,07,11,14,01,17.60
2016,07,11,14,02,17.80
2016,07,11,14,03,17.90
2016,07,11,14,04,18.10
2016,07,11,14,05,18.30
2016,07,11,14,06,18.50
2016,07,11,14,07,18.60
2016,07,11,14,08,18.60
2016,07,11,14,09,18.60
2016,07,11,14,10,18.60
2016,07,11,14,11,18.60
2016,07,11,14,12,18.60
2016,07,11,14,13,18.70
2016,07,11,14,14,18.80
2016,07,11,14,15,18.80
2016,07,11,14,16,18.70
2016,07,11,14,17,18.60
2016,07,11,14,18,18.50
2016,07,11,14,19,18.40
2016,07,11,14,20,18.40
2016,07,11,14,21,18.30
2016,07,11,14,22,18.30
2016,07,11,14,23,18.30
2016,07,11,14,24,18.40
2016,07,11,14,25,18.30
2016,07,11,14,26,18.30
2016,07,11,14,27,18.30
2016,07,11,14,28,18.20
2016,07,11,14,29,18.20
2016,07,11,14,30,18.20
2016,07,11,14,31,18.30
2016,07,11,14,32,18.30
2016,07,11,14,33,18.30
2016,07,11,14,34,18.20
2016,07,11,14,35,18.20
2016,07,11,14,36,18.20
2016,07,11,14,37,18.30
2016,07,11,14,38,18.30
2016,07,11,14,39,18.40
2016,07,11,14,40,18.50
2016,07,11,14,41,18.50
2016,07,11,14,42,18.60
2016,07,11,14,43,18.70
2016,07,11,14,44,18.70
2016,07,11,14,45,18.70
2016,07,11,14,46,18.60
2016,07,11,14,47,18.50
2016,07,11,14,48,18.40
2016,07,11,14,49,18.40
2016,07,11,14,50,18.30
2016,07,11,14,51,18.20
2016,07,11,14,52,18.10
2016,07,11,14,53,18.00
2016,07,11,14,54,18.00
2016,07,11,14,55,17.90
2016,07,11,14,56,18.00
2016,07,11,14,57,18.10
2016,07,11,14,58,18.10
2016,07,11,14,59,18.10
2016,07,11,15,00,18.10
2016,07,11,15,01,18.10
2016,07,11,15,02,18.00
2016,07,11,15,03,18.00
2016,07,11,15,04,18.00
2016,07,11,15,05,18.10
2016,07,11,15,06,18.10
2016,07,11,15,07,18.20
2016,07,11,15,08,18.20
2016,07,11,15,09,18.00
2016,07,11,15,10,18.00
2016,07,11,15,11,18.00
2016,07,11,15,12,17.90
2016,07,11,15,13,17.80
2016,07,11,15,14,17.70
2016,07,11,15,15,17.60
2016,07,11,15,16,17.60
2016,07,11,15,17,17.60
2016,07,11,15,18,17.60
2016,07,11,15,19,17.60
2016,07,11,15,20,17.60
2016,07,11,15,21,17.60
2016,07,11,15,22,17.60
2016,07,11,15,23,17.60
2016,07,11,15,24,17.50
2016,07,11,15,25,17.50
2016,07,11,15,26,17.40
2016,07,11,15,27,17.30
2016,07,11,15,28,17.30
2016,07,11,15,29,17.30
2016,07,11,15,30,17.30
2016,07,11,15,31,17.30
2016,07,11,15,32,17.40
2016,07,11,15,33,17.40
2016,07,11,15,34,17.40
2016,07,11,15,35,17.40
2016,07,11,15,36,17.40
2016,07,11,15,37,17.30
2016,07,11,15,38,17.30
2016,07,11,15,39,17.30
2016,07,11,15,40,17.30
2016,07,11,15,41,17.30
2016,07,11,15,42,17.30
2016,07,11,15,43,17.30
2016,07,11,15,44,17.30
2016,07,11,15,45,17.30
2016,07,11,15,46,17.30
2016,07,11,15,47,17.40
2016,07,11,15,48,17.40
2016,07,11,15,49,17.40
2016,07,11,15,50,17.50
2016,07,11,15,51,17.50
2016,07,11,15,52,17.50
2016,07,11,15,53,17.50
2016,07,11,15,54,17.50
2016,07,11,15,55,17.50
2016,07,11,15,56,17.50
2016,07,11,15,57,17.50
2016,07,11,15,58,17.40
2016,07,11,15,59,17.50
2016,07,11,16,00,17.50
2016,07,11,16,01,17.50
2016,07,11,16,02,17.50
2016,07,11,16,03,17.40
2016,07,11,16,04,17.40
2016,07,11,16,05,17.30
2016,07,11,16,06,17.20
2016,07,11,16,07,17.10
2016,07,11,16,08,17.10
2016,07,11,16,09,17.00
2016,07,11,16,10,17.00
2016,07,11,16,11,16.90
2016,07,11,16,12,16.90
2016,07,11,16,13,16.90
2016,07,11,16,14,17.00
2016,07,11,16,15,17.00
2016,07,11,16,16,17.10
2016,07,11,16,17,17.10
2016,07,11,16,18,17.10
2016,07,11,16,19,17.20
2016,07,11,16,20,17.20
2016,07,11,16,21,17.20
2016,07,11,16,22,17.20
2016,07,11,16,23,17.20
2016,07,11,16,24,17.20
2016,07,11,16,25,17.30
2016,07,11,16,26,17.30
2016,07,11,16,27,17.40
2016,07,11,16,28,17.40
2016,07,11,16,29,17.50
2016,07,11,16,30,17.50
2016,07,11,16,31,17.60
2016,07,11,16,32,17.60
2016,07,11,16,33,17.50
2016,07,11,16,34,17.50
2016,07,11,16,35,17.60
2016,07,11,16,36,17.60
2016,07,11,16,37,17.60
2016,07,11,16,38,17.60
2016,07,11,16,39,17.60
2016,07,11,16,40,17.60
2016,07,11,16,41,17.60
2016,07,11,16,42,17.50
2016,07,11,16,43,17.50
2016,07,11,16,44,17.40
2016,07,11,16,45,17.40
2016,07,11,16,46,17.40
2016,07,11,16,47,17.40
2016,07,11,16,48,17.40
2016,07,11,16,49,17.40
2016,07,11,16,50,17.40
2016,07,11,16,51,17.40
2016,07,11,16,52,17.40
2016,07,11,16,53,17.40
2016,07,11,16,54,17.40
2016,07,11,16,55,17.40
2016,07,11,16,56,17.40
2016,07,11,16,57,17.40
2016,07,11,16,58,17.40
2016,07,11,16,59,17.40
2016,07,11,17,00,17.40
2016,07,11,17,01,17.30
2016,07,11,17,02,17.30
2016,07,11,17,03,17.30
2016,07,11,17,04,17.30
2016,07,11,17,05,17.30
2016,07,11,17,06,17.20
2016,07,11,17,07,17.20
2016,07,11,17,08,17.20
2016,07,11,17,09,17.10
2016,07,11,17,10,17.10
2016,07,11,17,11,17.10
2016,07,11,17,12,17.10
2016,07,11,17,13,17.10
2016,07,11,17,14,17.10
2016,07,11,17,15,17.10
2016,07,11,17,16,17.00
2016,07,11,17,17,17.00
2016,07,11,17,18,16.90
2016,07,11,17,19,16.90